Weather History for Brookings, OR

Change the Weather History Date:

Sunday, November 17, 2013

  Actual Average Record
Temperature  
Mean Temperature 49 °F -  
Max Temperature 55 °F 57 °F 78 °F (1932)
Min Temperature 43 °F 44 °F 34 °F (1961)
Degree Days  
Heating Degree Days 16    
Moisture  
Dew Point 44 °F    
Average Humidity 88    
Maximum Humidity 100    
Minimum Humidity 57    
Precipitation  
Precipitation 0.00 in - - ()
Sea Level Pressure  
Sea Level Pressure 30.06 in    
Wind  
Wind Speed 2 mph (North)    
Max Wind Speed 6 mph    
Max Gust Speed -    
Visibility 8 miles    
Events      
Averages and records for this station are not official NWS values.
T = Trace of Precipitation, MM = Missing Value Source: NWS Daily Summary

Daily Weather History Graph

Daily Weather History Graph

Search for Another Location

Airport:

Trip Planner

Search our weather history database for the weather conditions in past years. The results will help you decide how hot, cold, wet, or windy it might be!

Date:

Astronomy

Nov. 17, 2013 Rise Set
Actual Time 7:10 AM PST 4:53 PM PST
Civil Twilight 6:39 AM PST 5:24 PM PST
Nautical Twilight 6:05 AM PST 5:58 PM PST
Astronomical Twilight 5:32 AM PST 6:31 PM PST
Moon 5:15 PM PST (11/17) 7:09 AM PST (11/17)
Length of Visible Light 10h 44m
Length of Day
9h 43m
Full, 100% of the Moon is Illuminated
Nov 17
Full
Nov 25
Last Quarter
Dec 2
New
Dec 9
First Quarter
Dec 17
Full

Hourly Weather History & Observations

Time (PST) Temp. Windchill Dew Point Humidity Pressure Visibility Wind Dir Wind Speed Gust Speed Precip Events Conditions
12:56 AM 46.9 °F - 45.9 °F 96% 30.01 in 4.0 mi Calm Calm - N/A   Overcast
1:56 AM 46.9 °F - 45.9 °F 96% 30.01 in 8.0 mi Variable 3.5 mph - N/A   Overcast
2:56 AM 46.9 °F - 45.9 °F 96% 30.02 in 9.0 mi Variable 3.5 mph - N/A   Overcast
3:56 AM 46.9 °F - 45.9 °F 96% 30.01 in 8.0 mi Calm Calm - N/A   Overcast
4:56 AM 46.9 °F - 45.9 °F 96% 30.01 in 9.0 mi Variable 4.6 mph - N/A   Overcast
5:56 AM 46.9 °F - 45.9 °F 96% 30.02 in 8.0 mi Calm Calm - N/A   Overcast
6:56 AM 46.9 °F - 45.0 °F 93% 30.03 in 9.0 mi Variable 3.5 mph - N/A   Overcast
7:56 AM 46.9 °F - 45.9 °F 96% 30.06 in 8.0 mi Variable 3.5 mph - N/A   Overcast
8:56 AM 48.9 °F - 45.9 °F 89% 30.09 in 9.0 mi Variable 3.5 mph - N/A   Overcast
9:56 AM 50.0 °F - 46.9 °F 89% 30.11 in 8.0 mi Calm Calm - N/A   Overcast
10:56 AM 52.0 °F - 43.9 °F 74% 30.11 in 9.0 mi Variable 3.5 mph - N/A   Overcast
11:56 AM 55.9 °F - 41.0 °F 57% 30.09 in 10.0 mi Variable 4.6 mph - N/A   Clear
12:56 PM 54.9 °F - 43.9 °F 66% 30.08 in 8.0 mi Variable 5.8 mph - N/A   Partly Cloudy
1:56 PM 54.9 °F - 43.0 °F 64% 30.06 in 9.0 mi Variable 4.6 mph - N/A   Clear
2:56 PM 52.9 °F - 43.9 °F 71% 30.06 in 8.0 mi Calm Calm - N/A   Clear
3:56 PM 52.0 °F - 43.9 °F 74% 30.06 in 9.0 mi Calm Calm - N/A   Clear
4:56 PM 48.9 °F - 45.0 °F 86% 30.06 in 8.0 mi Calm Calm - N/A   Clear
5:56 PM 45.9 °F - 43.9 °F 93% 30.07 in 9.0 mi Calm Calm - N/A   Clear
6:56 PM 45.0 °F - 43.0 °F 93% 30.07 in 9.0 mi Calm Calm - N/A   Clear
7:56 PM 43.0 °F - 41.9 °F 96% 30.08 in 8.0 mi Calm Calm - N/A   Clear
8:56 PM 43.9 °F - 43.0 °F 97% 30.08 in 9.0 mi Calm Calm - N/A   Clear
9:56 PM 43.9 °F 42.3 °F 43.9 °F 100% 30.08 in 8.0 mi Variable 3.5 mph - N/A   Clear
10:56 PM 45.0 °F 42.6 °F 43.0 °F 93% 30.07 in 10.0 mi Variable 4.6 mph - N/A   Clear
11:56 PM 45.0 °F 43.5 °F 43.0 °F 93% 30.07 in 10.0 mi Variable 3.5 mph - N/A   Clear